Location: Alexandria
(38.8050°N, 77.0470°W)
Time: 11:59:13
(UTC-05:00)

Tiangong 1 - Pass Details

Date: 14 November 2017
Orbit: 284 x 308 km, 42.8° (Epoch: 23 November)

Event Time Altitude Azimuth Distance (km) Brightness Sun altitude
Exits shadow 05:04:12 15° 157° (SSE) 883 3.2 -20.6°
Drops below altitude 10° 05:04:51 10° 148° (SSE) 1,112 3.9 -20.5°
Sets 05:06:59 0° 135° (SE) 1,951 5.5 -20.1°
